[[{"header":{"parameterUnit":"m.s-1","parameterCategory":1,"la1":30.2992,"la2":30.254,"lo1":-89.0895,"lo2":-89.0443,"dy":0.0025,"dx":0.0025,"nx":19,"ny":19,"refTime":"2026-03-12T21:00:00:Z","depth":0,"parameterNumber":2,"parameterNumberName":"U-component_of_WINDS"},"data":[0,0,0,0.2557,0.2558,0.2583,0.2583,0.261,0.261,0,0,0,0,0,0,0,0,0,0,0,0.2547,0.2547,0.2557,0.2558,0.2583,0.2583,0.261,0.261,0,0,0,0,0,0,0,0,0,0,0,0.2547,0.2547,0.2548,0.2558,0.2583,0.2583,0.261,0.2593,0,0,0,0,0,0,0,0,0,0,0.2569,0.2558,0.2547,0.2548,0.2558,0.2583,0.2583,0.2592,0.2594,0.2597,0,0.2599,0,0.2605,0.2612,0.2612,0,0,0,0.2559,0.2556,0.2565,0.2548,0.2558,0.2583,0.2572,0.2593,0.2595,0.2599,0.26,0.2601,0.2606,0.2612,0.2612,0.2625,0.2625,0,0,0.2558,0.255,0.2564,0.2566,0.2563,0.2571,0.2573,0.2594,0.2594,0.26,0.2602,0.2606,0.2612,0.2612,0.2625,0.2625,0,0,0,0.2553,0.2549,0.2558,0.2565,0.257,0.2572,0.2574,0.2593,0.2597,0.2602,0.2607,0.2612,0.2613,0.2625,0.2625,0.2617,0,0,0,0.2552,0.2546,0.2557,0.2553,0.257,0.2582,0.2572,0.2595,0.2598,0.2606,0.2612,0.2613,0.2625,0.2625,0.2617,0.2615,0,0,0,0.2546,0.2546,0.2549,0.2552,0.2563,0.2582,0.2587,0.2596,0.2601,0.2612,0.2613,0.2625,0.2625,0.2618,0.2615,0.2616,0,0,0,0.2538,0.2541,0.2548,0.2553,0.2563,0.2577,0.2587,0.2598,0.2607,0.2613,0.2625,0.2625,0.2618,0.2615,0.2616,0.2615,0.2614,0,0,0.2537,0.254,0.2544,0.2552,0.2563,0.2574,0.2584,0.2599,0.2606,0.2618,0.2619,0.2617,0.2615,0.2616,0.2611,0.261,0,0,0,0.2541,0.2543,0.2548,0.2557,0.2569,0.2578,0.2593,0.2598,0.2609,0.2611,0.2618,0.2617,0.2618,0.2618,0.2617,0.2618,0.2625,0.2625,0.2625,0.2528,0.2539,0.2545,0.2559,0.2567,0.2582,0.2589,0.2599,0.2606,0.2608,0.2611,0.2607,0.2606,0.2606,0.2607,0.2612,0.2612,0.2611,0.2611,0.2528,0.2533,0.2544,0.2554,0.2565,0.2573,0.2587,0.2592,0.2601,0.2605,0.2606,0.261,0.2605,0.2606,0.2611,0.2611,0.2611,0.2611,0.2611,0.2521,0.2525,0.2532,0.2546,0.2554,0.2568,0.2576,0.2585,0.2594,0.2595,0.26,0.26,0.2601,0.2597,0.2597,0.2597,0.2597,0.2597,0.2597,0.251,0.2519,0.2525,0.2538,0.2545,0.2555,0.257,0.2576,0.2586,0.2592,0.2592,0.2599,0.2603,0.2603,0.2596,0.2596,0.2596,0.2596,0.2596,0.2506,0.2508,0.2518,0.2525,0.2541,0.2549,0.2561,0.2573,0.258,0.2584,0.2591,0.2592,0.2596,0.2596,0.2597,0.2589,0.2589,0.2589,0.2589,0.2499,0.2502,0.2514,0.2524,0.2535,0.2547,0.2557,0.2569,0.2581,0.2585,0.2588,0.259,0.259,0.2593,0.2594,0.2595,0.2586,0.2586,0.2586,0.2497,0.2501,0.2508,0.2521,0.2535,0.2546,0.2555,0.2566,0.258,0.2586,0.2589,0.2589,0.2592,0.2592,0.2598,0.2599,0.2601,0,0]},{"header":{"parameterUnit":"m.s-1","parameterCategory":1,"la1":30.2992,"la2":30.254,"lo1":-89.0895,"lo2":-89.0443,"dy":0.0025,"dx":0.0025,"nx":19,"ny":19,"refTime":"2026-03-12T21:00:00:Z","depth":0,"parameterNumber":3,"parameterNumberName":"V-component_of_WINDS"},"data":[0,0,0,0.9527,0.9526,0.9508,0.9507,0.9491,0.9491,0,0,0,0,0,0,0,0,0,0,0,0.9537,0.9537,0.9527,0.9526,0.9508,0.9507,0.9491,0.9491,0,0,0,0,0,0,0,0,0,0,0,0.9537,0.9537,0.9537,0.9526,0.9508,0.9507,0.9491,0.9502,0,0,0,0,0,0,0,0,0,0,0.9519,0.9534,0.9537,0.9537,0.9526,0.9508,0.9507,0.9503,0.9501,0.9502,0,0.9505,0,0.9498,0.949,0.949,0,0,0,0.9522,0.9535,0.9525,0.9537,0.9526,0.9508,0.9515,0.9502,0.9501,0.9501,0.9505,0.9504,0.9498,0.949,0.949,0.951,0.951,0,0,0.9523,0.9536,0.9526,0.9525,0.9529,0.9516,0.9514,0.9501,0.9506,0.9505,0.9504,0.9497,0.949,0.949,0.9509,0.951,0,0,0,0.9529,0.9537,0.9528,0.9526,0.9522,0.9515,0.9514,0.9506,0.9502,0.9503,0.9497,0.949,0.949,0.9509,0.9509,0.9534,0,0,0,0.9529,0.954,0.9528,0.9536,0.9522,0.9514,0.952,0.9503,0.9501,0.9497,0.949,0.949,0.9509,0.9509,0.9533,0.9543,0,0,0,0.9536,0.9541,0.954,0.9537,0.9529,0.9514,0.9509,0.9503,0.9498,0.949,0.949,0.9508,0.9509,0.9532,0.9541,0.9551,0,0,0,0.9548,0.9563,0.9541,0.9555,0.953,0.953,0.9509,0.9509,0.9505,0.949,0.9509,0.9509,0.9531,0.954,0.955,0.9561,0.9567,0,0,0.9574,0.9567,0.9574,0.9554,0.9562,0.9532,0.9543,0.9528,0.9515,0.9512,0.9512,0.9533,0.9541,0.9551,0.9599,0.9604,0,0,0,0.9587,0.9592,0.9592,0.9589,0.9578,0.9569,0.9551,0.9545,0.9542,0.9517,0.954,0.9544,0.955,0.9554,0.9558,0.9561,0.9512,0.9512,0.9512,0.9641,0.9625,0.9636,0.9617,0.9615,0.9596,0.9593,0.9581,0.9566,0.9572,0.957,0.9601,0.9607,0.961,0.9613,0.9576,0.9576,0.9576,0.9576,0.9677,0.9681,0.966,0.9663,0.9646,0.9648,0.9631,0.9619,0.9618,0.9601,0.9605,0.9586,0.9616,0.9618,0.9578,0.9577,0.9577,0.9577,0.9577,0.9709,0.9708,0.9701,0.9696,0.9693,0.9674,0.9674,0.9659,0.9644,0.9648,0.9643,0.9643,0.9639,0.9647,0.9647,0.9647,0.9647,0.9647,0.9647,0.9744,0.9736,0.9738,0.9728,0.9724,0.9717,0.9698,0.9694,0.9685,0.9673,0.9673,0.9656,0.9623,0.9614,0.9649,0.9649,0.9649,0.9648,0.9648,0.9783,0.9772,0.9775,0.9771,0.9758,0.9756,0.9736,0.9729,0.9723,0.9723,0.9705,0.9684,0.9675,0.9671,0.9664,0.971,0.971,0.971,0.971,0.9809,0.9803,0.9803,0.9797,0.9791,0.9773,0.9776,0.9762,0.9746,0.9741,0.9733,0.9722,0.9719,0.9711,0.9707,0.9699,0.9754,0.9754,0.9754,0.9831,0.9824,0.983,0.9814,0.9803,0.9793,0.9795,0.9789,0.9768,0.9755,0.9736,0.9735,0.9717,0.9712,0.9697,0.9691,0.9676,0,0]}]]